Location: ????????
(54.6123°N, 39.2099°E)
Time: 14:11:35
(UTC+00:00)

Cosmos 2112 Rocket - Pass Details

Date: 19 May 2025
Orbit: 753 x 782 km, 74.0° (Epoch: 19 June)

Event Time Altitude Azimuth Distance (km) Brightness Sun altitude
Exits shadow 22:01:01 23° 194° (SSW) 1,581 5.0 -14.9°
Maximum altitude 22:04:17 74° 113° (ESE) 800 4.0 -14.8°
Drops below altitude 10° 22:09:30 10° 30° (NNE) 2,306 7.7 -14.7°
Sets 22:11:53 0° 28° (NNE) 3,232 8.8 -14.6°
